Weather History for Jordan, MT

Change the Weather History Date:

Wednesday, September 18, 2013

  Actual Average Record
Temperature  
Mean Temperature 60 °F 56 °F  
Max Temperature 72 °F 72 °F 95 °F (1984)
Min Temperature 48 °F 40 °F 20 °F (1991)
Degree Days  
Heating Degree Days 5 9  
Month to date heating degree days 16 116  
Since 1 July heating degree days 29 181  
Cooling Degree Days 0 0  
Month to date cooling degree days 77 24  
Year to date cooling degree days 520 417  
Growing Degree Days 12 (Base 50)    
Moisture  
Dew Point 49 °F    
Average Humidity 68    
Maximum Humidity 96    
Minimum Humidity 40    
Precipitation  
Precipitation 0.01 in 0.04 in 1.42 in (1978)
Month to date precipitation 0.95 0.69  
Year to date precipitation 15.25 10.61  
Snow  
Snow 0.00 in - - ()
Month to date snowfall 0.0  
Since 1 July snowfall 0.0  
Since 1 September snowfall 0.0  
Snow Depth 0.00 in    
Sea Level Pressure  
Sea Level Pressure 29.68 in    
Wind  
Wind Speed 10 mph (WNW)    
Max Wind Speed 32 mph    
Max Gust Speed 38 mph    
T = Trace of Precipitation, MM = Missing Value Source: NWS Daily Summary

Daily Weather History Graph

Daily Weather History Graph

Search for Another Location

Airport:

Trip Planner

Search our weather history database for the weather conditions in past years. The results will help you decide how hot, cold, wet, or windy it might be!

Date:

Astronomy

Sep. 18, 2013 Rise Set
Actual Time 6:49 AM MDT 7:13 PM MDT
Civil Twilight 6:18 AM MDT 7:43 PM MDT
Nautical Twilight 5:42 AM MDT 8:19 PM MDT
Astronomical Twilight 5:04 AM MDT 8:57 PM MDT
Moon 6:36 PM MDT (9/18) 5:54 AM MDT (9/18)
Length of Visible Light 13h 24m
Length of Day
12h 23m
Waxing Gibbous, 99% of the Moon is Illuminated
Sep 18
Waxing Gibbous
Sep 19
Full
Sep 26
Last Quarter
Oct 4
New
Oct 11
First Quarter

Hourly Weather History & Observations

Time (MDT) Temp. Dew Point Humidity Pressure Visibility Wind Dir Wind Speed Gust Speed Precip Events Conditions
12:48 AM 60.1 °F 55.9 °F 86% 29.60 in - South 5.8 mph - N/A   Unknown
1:48 AM 59.0 °F 54.0 °F 83% 29.56 in - Calm Calm - N/A   Unknown
2:48 AM 55.9 °F 54.0 °F 93% 29.56 in - Calm Calm - N/A   Unknown
3:48 AM 55.9 °F 53.1 °F 90% 29.59 in - NW 5.8 mph - N/A   Unknown
4:48 AM 54.0 °F 52.0 °F 93% 29.57 in - Calm Calm - N/A   Unknown
5:48 AM 52.0 °F 50.0 °F 93% 29.58 in - Calm Calm - N/A   Unknown
6:48 AM 52.0 °F 50.0 °F 93% 29.58 in - Calm Calm - N/A   Unknown
7:48 AM 52.0 °F 50.0 °F 93% 29.60 in - Calm Calm - N/A   Unknown
8:48 AM 60.1 °F 55.0 °F 83% 29.60 in - WNW 3.5 mph - N/A   Unknown
9:48 AM 64.9 °F 53.1 °F 65% 29.59 in - West 9.2 mph - N/A   Unknown
10:48 AM 68.0 °F 54.0 °F 61% 29.60 in - WNW 6.9 mph - N/A   Unknown
11:48 AM 68.0 °F 52.0 °F 56% 29.64 in - WNW 17.3 mph - N/A   Unknown
12:48 PM 64.0 °F 52.0 °F 65% 29.62 in - NNW 13.8 mph - N/A   Unknown
1:48 PM 72.0 °F 48.0 °F 43% 29.63 in - WNW 18.4 mph 29.9 mph N/A   Unknown
2:48 PM 70.0 °F 44.1 °F 39% 29.68 in - WNW 26.5 mph 34.5 mph N/A   Unknown
3:48 PM 57.0 °F 50.0 °F 77% 29.72 in - WNW 12.7 mph 24.2 mph N/A   Unknown
4:48 PM 64.0 °F 46.9 °F 54% 29.73 in - WNW 16.1 mph - 0.01 in   Unknown
5:48 PM 60.1 °F 48.0 °F 64% 29.78 in - West 13.8 mph 21.9 mph N/A   Unknown
6:48 PM 60.1 °F 46.9 °F 62% 29.79 in - West 15.0 mph 25.3 mph N/A   Unknown
7:48 PM 57.9 °F 45.0 °F 62% 29.82 in - West 9.2 mph - N/A   Unknown
8:48 PM 55.9 °F 46.0 °F 69% 29.84 in - West 10.4 mph - N/A   Unknown
9:48 PM 53.1 °F 46.0 °F 77% 29.86 in - West 10.4 mph - N/A   Unknown
10:48 PM 51.1 °F 39.0 °F 63% 29.86 in - West 17.3 mph 26.5 mph N/A   Unknown
11:48 PM 48.9 °F 37.9 °F 66% 29.88 in - West 21.9 mph 27.6 mph N/A   Unknown